Carroll, IA

12:19 PM CDT on June 22, 2017 (GMT -0500)
Neu

Weather History for KCIN - January, 2013

Change the Weather History Date:

Saturday, January 12, 2013

  Actual Average Record
Temperature  
Mean Temperature 20 °F -  
Max Temperature 30 °F 26 °F 55 °F (1987)
Min Temperature 10 °F 7 °F -30 °F (1974)
Degree Days  
Heating Degree Days 45    
Moisture  
Dew Point 11 °F    
Average Humidity 71    
Maximum Humidity 93    
Minimum Humidity 62    
Precipitation  
Precipitation 0.00 in - - ()
Sea Level Pressure  
Sea Level Pressure 29.97 in    
Wind  
Wind Speed 20 mph (WNW)    
Max Wind Speed 29 mph    
Max Gust Speed 38 mph    
Visibility 10 miles    
Events Rain , Snow    
Averages and records for this station are not official NWS values.
T = Trace of Precipitation, MM = Missing Value Source: NWS Daily Summary

Daily Weather History Graph

Daily Weather History Graph

Search for Another Location

Airport or City:

Trip Planner

Search our weather history database for the weather conditions in past years. The results will help you decide how hot, cold, wet, or windy it might be!

Date:

Astronomy

Jan. 12, 2013 Rise Set
Actual Time 7:45 AM CST 5:09 PM CST
Civil Twilight 7:14 AM CST 5:40 PM CST
Nautical Twilight 6:40 AM CST 6:15 PM CST
Astronomical Twilight 6:06 AM CST 6:48 PM CST
Moon 8:03 AM CST (1/12) 6:41 PM CST (1/12)
Length of Visible Light 10h 25m
Length of Day
9h 23m
New Moon, 1% of the Moon is Illuminated
Jan 12
New Moon
Jan 18
First Quarter
Jan 26
Full
Feb 3
Last Quarter
Feb 10
New

Hourly Weather History & Observations

Time (CST) Temp. Windchill Dew Point Humidity Pressure Visibility Wind Dir Wind Speed Gust Speed Precip Events Conditions
12:15 AM 30.2 °F 16.8 °F 28.4 °F 93% 29.62 in 10.0 mi West 23.0 mph 31.1 mph N/A   Overcast
12:35 AM 30.2 °F 16.8 °F 26.6 °F 86% 29.64 in 10.0 mi West 23.0 mph 34.5 mph N/A   Overcast
12:55 AM 28.4 °F 14.1 °F 24.8 °F 86% 29.67 in 10.0 mi West 24.2 mph 34.5 mph N/A   Overcast
1:15 AM 28.4 °F 14.7 °F 24.8 °F 86% 29.69 in 10.0 mi West 21.9 mph 31.1 mph N/A   Overcast
1:35 AM 26.6 °F 11.4 °F 21.2 °F 80% 29.71 in 10.0 mi WNW 25.3 mph - N/A   Overcast
1:55 AM 26.6 °F 12.4 °F 23.0 °F 86% 29.74 in 10.0 mi West 21.9 mph 28.8 mph N/A   Overcast
2:15 AM 26.6 °F 11.4 °F 19.4 °F 74% 29.77 in 10.0 mi West 25.3 mph 33.4 mph N/A   Overcast
2:35 AM 24.8 °F 9.3 °F 17.6 °F 74% 29.78 in 10.0 mi West 24.2 mph 32.2 mph N/A Rain Light Freezing Rain
2:55 AM 23.0 °F 6.9 °F 17.6 °F 80% 29.79 in 10.0 mi WNW 24.2 mph 33.4 mph N/A Rain Light Freezing Rain
3:15 AM 23.0 °F 7.2 °F 15.8 °F 74% 29.79 in 10.0 mi West 23.0 mph 33.4 mph N/A   Overcast
3:35 AM 23.0 °F 8.0 °F 17.6 °F 80% 29.80 in 9.0 mi West 20.7 mph 29.9 mph N/A   Overcast
3:55 AM 23.0 °F 5.7 °F 17.6 °F 80% 29.82 in 7.0 mi West 28.8 mph 38.0 mph N/A Snow Light Snow
4:15 AM 21.2 °F 4.2 °F 14.0 °F 74% 29.84 in 10.0 mi West 25.3 mph - N/A   Scattered Clouds
4:35 AM 21.2 °F 4.2 °F 14.0 °F 74% 29.85 in 10.0 mi West 25.3 mph 32.2 mph N/A Snow Light Snow
4:55 AM 21.2 °F 5.6 °F 12.2 °F 68% 29.87 in 10.0 mi West 20.7 mph 28.8 mph N/A Snow Light Snow
5:15 AM 19.4 °F 4.5 °F 14.0 °F 80% 29.88 in 10.0 mi West 17.3 mph 25.3 mph N/A   Mostly Cloudy
5:35 AM 19.4 °F 2.1 °F 10.4 °F 68% 29.90 in 10.0 mi West 24.2 mph 31.1 mph N/A Rain Light Freezing Rain
5:55 AM 19.4 °F 3.2 °F 12.2 °F 74% 29.91 in 10.0 mi West 20.7 mph - N/A Snow Light Snow
6:15 AM 19.4 °F 4.5 °F 12.2 °F 74% 29.93 in 10.0 mi West 17.3 mph 24.2 mph N/A   Overcast
6:35 AM 19.4 °F 4.5 °F 10.4 °F 68% 29.92 in 10.0 mi West 17.3 mph 25.3 mph N/A   Overcast
6:55 AM 19.4 °F 3.2 °F 10.4 °F 68% 29.93 in 10.0 mi West 20.7 mph - N/A   Mostly Cloudy
7:15 AM 17.6 °F 3.7 °F 10.4 °F 73% 29.94 in 10.0 mi WNW 13.8 mph 21.9 mph N/A   Mostly Cloudy
7:35 AM 17.6 °F 2.7 °F 8.6 °F 68% 29.95 in 10.0 mi WNW 16.1 mph 23.0 mph N/A   Partly Cloudy
7:55 AM 17.6 °F 5.0 °F 10.4 °F 73% 29.96 in 10.0 mi WNW 11.5 mph - N/A   Clear
8:15 AM 17.6 °F 5.0 °F 10.4 °F 73% 29.98 in 10.0 mi West 11.5 mph - N/A   Mostly Cloudy
8:35 AM 17.6 °F 5.0 °F 12.2 °F 79% 29.98 in 10.0 mi West 11.5 mph - N/A   Overcast
8:55 AM 19.4 °F 7.9 °F 12.2 °F 74% 29.99 in 9.0 mi West 10.4 mph - N/A   Overcast
9:15 AM 19.4 °F 6.6 °F 14.0 °F 80% 30.00 in 6.0 mi WSW 12.7 mph - N/A Snow Light Snow
9:35 AM 19.4 °F 4.1 °F 10.4 °F 68% 30.00 in 10.0 mi West 18.4 mph - N/A   Overcast
9:55 AM 19.4 °F 3.2 °F 12.2 °F 74% 30.01 in 10.0 mi West 20.7 mph - N/A   Overcast
10:15 AM 19.4 °F 4.5 °F 10.4 °F 68% 30.03 in 10.0 mi WNW 17.3 mph 25.3 mph N/A   Overcast
10:35 AM 19.4 °F 4.5 °F 10.4 °F 68% 30.02 in 10.0 mi WNW 17.3 mph 23.0 mph N/A   Overcast
10:55 AM 19.4 °F 3.2 °F 10.4 °F 68% 30.01 in 8.0 mi WNW 20.7 mph - N/A   Overcast
11:15 AM 19.4 °F 4.5 °F 10.4 °F 68% 30.03 in 10.0 mi WNW 17.3 mph 24.2 mph N/A   Overcast
11:55 AM 19.4 °F 4.1 °F 10.4 °F 68% 30.04 in 10.0 mi West 18.4 mph 28.8 mph N/A Snow Light Snow
12:15 PM 19.4 °F 3.6 °F 10.4 °F 68% 30.02 in 10.0 mi WNW 19.6 mph 26.5 mph N/A   Overcast
12:35 PM 19.4 °F 3.6 °F 10.4 °F 68% 30.00 in 10.0 mi WNW 19.6 mph 25.3 mph N/A   Overcast
12:55 PM 19.4 °F 3.6 °F 10.4 °F 68% 30.01 in 10.0 mi WNW 19.6 mph 26.5 mph N/A   Overcast
1:15 PM 19.4 °F 3.6 °F 10.4 °F 68% 30.02 in 10.0 mi WNW 19.6 mph - N/A   Overcast
1:35 PM 19.4 °F 5.0 °F 10.4 °F 68% 30.01 in 10.0 mi WNW 16.1 mph - N/A   Overcast
1:55 PM 19.4 °F 4.5 °F 8.6 °F 63% 29.99 in 10.0 mi WNW 17.3 mph - N/A   Mostly Cloudy
2:15 PM 19.4 °F 5.5 °F 10.4 °F 68% 30.00 in 10.0 mi WNW 15.0 mph 23.0 mph N/A   Overcast
2:35 PM 19.4 °F 4.1 °F 8.6 °F 63% 30.01 in 10.0 mi WNW 18.4 mph - N/A   Overcast
2:55 PM 19.4 °F 4.5 °F 8.6 °F 63% 30.02 in 10.0 mi WNW 17.3 mph - N/A   Mostly Cloudy
3:15 PM 19.4 °F 5.0 °F 8.6 °F 63% 30.04 in 10.0 mi WNW 16.1 mph 23.0 mph N/A   Mostly Cloudy
3:35 PM 17.6 °F 3.7 °F 10.4 °F 73% 30.05 in 9.0 mi NW 13.8 mph 23.0 mph N/A Snow Light Snow
3:55 PM 17.6 °F 2.7 °F 8.6 °F 68% 30.04 in 10.0 mi NW 16.1 mph - N/A   Overcast
4:15 PM 17.6 °F 3.7 °F 8.6 °F 68% 30.04 in 10.0 mi NW 13.8 mph - N/A   Overcast
4:35 PM 17.6 °F 3.2 °F 8.6 °F 68% 30.04 in 10.0 mi WNW 15.0 mph - N/A   Overcast
4:55 PM 17.6 °F 3.2 °F 8.6 °F 68% 30.04 in 10.0 mi WNW 15.0 mph - N/A   Overcast
5:15 PM 17.6 °F 3.2 °F 8.6 °F 68% 30.06 in 9.0 mi WNW 15.0 mph - N/A Snow Light Snow
5:35 PM 17.6 °F 2.7 °F 6.8 °F 63% 30.05 in 10.0 mi NW 16.1 mph - N/A   Overcast
5:55 PM 15.8 °F 0.3 °F 6.8 °F 68% 30.06 in 10.0 mi NW 16.1 mph - N/A   Overcast
6:15 PM 15.8 °F 1.4 °F 6.8 °F 68% 30.07 in 10.0 mi NW 13.8 mph - N/A   Overcast
6:35 PM 15.8 °F 1.4 °F 6.8 °F 68% 30.09 in 10.0 mi WNW 13.8 mph - N/A   Overcast
6:55 PM 15.8 °F 1.4 °F 6.8 °F 68% 30.08 in 10.0 mi NW 13.8 mph - N/A   Overcast
7:15 PM 15.8 °F 2.1 °F 5.0 °F 62% 30.09 in 10.0 mi NW 12.7 mph - N/A   Overcast
7:35 PM 15.8 °F 4.2 °F 8.6 °F 73% 30.10 in 9.0 mi WNW 9.2 mph 17.3 mph N/A Snow Light Snow
7:55 PM 15.8 °F 2.1 °F 6.8 °F 68% 30.07 in 10.0 mi NW 12.7 mph 21.9 mph N/A   Overcast
8:15 PM 15.8 °F -0.2 °F 5.0 °F 62% 30.07 in 10.0 mi NW 17.3 mph - N/A   Overcast
8:35 PM 14.0 °F -1.4 °F 5.0 °F 67% 30.07 in 10.0 mi NW 15.0 mph 21.9 mph N/A   Mostly Cloudy
8:55 PM 14.0 °F -1.4 °F 5.0 °F 67% 30.08 in 10.0 mi NW 15.0 mph - N/A   Mostly Cloudy
9:15 PM 12.2 °F -4.8 °F 5.0 °F 73% 30.07 in 10.0 mi NW 17.3 mph - N/A   Scattered Clouds
9:35 PM 12.2 °F -3.7 °F 3.2 °F 67% 30.07 in 10.0 mi NW 15.0 mph 21.9 mph N/A   Partly Cloudy
9:55 PM 12.2 °F -3.7 °F 3.2 °F 67% 30.08 in 10.0 mi NW 15.0 mph 23.0 mph N/A   Clear
10:15 PM 12.2 °F -5.3 °F 3.2 °F 67% 30.07 in 10.0 mi NW 18.4 mph - N/A   Clear
10:35 PM 10.4 °F -5.4 °F 3.2 °F 73% 30.07 in 10.0 mi NW 13.8 mph 21.9 mph N/A   Partly Cloudy
10:55 PM 10.4 °F -4.8 °F 3.2 °F 73% 30.09 in 10.0 mi NW 12.7 mph 18.4 mph N/A   Mostly Cloudy
11:15 PM 10.4 °F -6.6 °F 3.2 °F 73% 30.07 in 10.0 mi NW 16.1 mph 23.0 mph N/A   Scattered Clouds
11:35 PM 10.4 °F -7.2 °F 1.4 °F 67% 30.07 in 10.0 mi NW 17.3 mph - N/A   Mostly Cloudy
11:55 PM 10.4 °F -5.4 °F 1.4 °F 67% 30.06 in 10.0 mi NW 13.8 mph - N/A   Overcast